{"data":{"norad_id":60155,"intl_designator":"2024-120W","name":"STARLINK-32137","alt_names":[],"object_type":"PAYLOAD","status":"ACTIVE","operator":null,"country":"US","launch_date":"2024-06-27","launch_site_code":"AFETR","launch_vehicle":null,"mission":null,"orbit_class":"UNKNOWN","rcs_meters":null,"size_class":null,"mass_kg":null,"dimensions":null,"purposes":["comms"],"wikipedia_slug":null,"has_3d_model":false,"image_url":null,"decayed_at":null,"tle_current":{"epoch":"2026-09-21T21:21:53.330976Z","epoch_age_seconds":61452,"freshness":"FRESH","line1":"1 60155U 24120W   26264.89020059 -.00000259  00000+0  34564-5 0  9992","line2":"2 60155  53.1591 125.1675 0001195  94.6658 265.4481 15.34391603126468","mean_motion":15.34391603,"eccentricity":0.0001195,"inclination_deg":53.1591,"raan_deg":125.1675,"arg_perigee_deg":94.6658,"mean_anomaly_deg":265.4481,"bstar":3.4564e-6,"rev_number":12646,"period_min":93.848271665757,"perigee_km":461.91071458335,"apogee_km":463.54568136567,"semimajor_km":6840.8651979745,"source":"CELESTRAK","updated_at":"2026-09-22T09:00:49.180845Z"}}}